Weather History for KMRY - November, 2012

Change the Weather History Date:

Friday, November 2, 2012

  Actual Average Record
Temperature  
Mean Temperature 54 °F 57 °F  
Max Temperature 62 °F 66 °F 81 °F (2009)
Min Temperature 46 °F 48 °F 40 °F (2003)
Degree Days  
Heating Degree Days 11    
Month to date heating degree days 17  
Since 1 July heating degree days 692  
Cooling Degree Days 0    
Month to date cooling degree days 0  
Year to date cooling degree days 26  
Growing Degree Days 4 (Base 50)    
Moisture  
Dew Point 51 °F    
Average Humidity 82    
Maximum Humidity 100    
Minimum Humidity 64    
Precipitation  
Precipitation 0.00 in - 0.10 in (2008)
Month to date precipitation 0.13  
Year to date precipitation 8.46  
Since 1 July precipitation 0.81  
Sea Level Pressure  
Sea Level Pressure 30.08 in    
Wind  
Wind Speed 4 mph (SW)    
Max Wind Speed 14 mph    
Max Gust Speed 14 mph    
Visibility 4 miles    
Events Fog    
T = Trace of Precipitation, MM = Missing Value Source: NWS Daily Summary

Daily Weather History Graph

Daily Weather History Graph

Search for Another Location

Airport or City:

Trip Planner

Search our weather history database for the weather conditions in past years. The results will help you decide how hot, cold, wet, or windy it might be!

Date:

Astronomy

Nov. 02, 2012 Rise Set
Actual Time 7:32 AM PDT 6:08 PM PDT
Civil Twilight 7:05 AM PDT 6:35 PM PDT
Nautical Twilight 6:34 AM PDT 7:06 PM PDT
Astronomical Twilight 6:04 AM PDT 7:36 PM PDT
Moon 9:04 PM PDT (11/2) 10:53 AM PDT (11/2)
Length of Visible Light 11h 30m
Length of Day
10h 36m
Waning Gibbous, 86% of the Moon is Illuminated
Nov 2
Waning Gibbous
Nov 6
Last Quarter
Nov 13
New
Nov 20
First Quarter
Nov 28
Full

Hourly Weather History & Observations

Time (PDT) Temp. Dew Point Humidity Pressure Visibility Wind Dir Wind Speed Gust Speed Precip Events Conditions
12:05 AM 55.4 °F 55.4 °F 100% 30.05 in 0.2 mi Calm Calm - N/A Fog Fog
12:30 AM 55.4 °F 53.6 °F 94% 30.06 in 0.5 mi Calm Calm - N/A Fog Fog
12:44 AM 55.4 °F 55.4 °F 100% 30.06 in 0.2 mi Calm Calm - N/A Fog Fog
12:54 AM 55.0 °F 54.0 °F 96% 30.10 in 0.2 mi Calm Calm - N/A Fog Fog
1:37 AM 55.4 °F 53.6 °F 94% 30.07 in 0.5 mi WSW 3.5 mph - N/A Fog Fog
1:47 AM 55.4 °F 55.4 °F 100% 30.06 in 0.2 mi Calm Calm - N/A Fog Fog
1:54 AM 55.0 °F 55.0 °F 100% 30.10 in 0.2 mi Calm Calm - N/A Fog Fog
2:04 AM 55.4 °F 55.4 °F 100% 30.06 in 0.5 mi Calm Calm - N/A Fog Fog
2:14 AM 55.4 °F 53.6 °F 94% 30.06 in 0.2 mi ENE 3.5 mph - N/A Fog Fog
2:50 AM 53.6 °F 53.6 °F 100% 30.06 in 0.5 mi NNE 3.5 mph - N/A Fog Fog
2:54 AM 54.0 °F 53.1 °F 97% 30.09 in 0.5 mi Calm Calm - N/A Fog Fog
3:40 AM 51.8 °F 51.8 °F 100% 30.05 in 0.2 mi Calm Calm - N/A Fog Fog
3:54 AM 52.0 °F 52.0 °F 100% 30.09 in 0.2 mi Calm Calm - N/A Fog Fog
4:05 AM 51.8 °F 51.8 °F 100% 30.05 in 0.2 mi Calm Calm - N/A Fog Fog
4:36 AM 51.8 °F 51.8 °F 100% 30.05 in 0.2 mi East 3.5 mph - N/A Fog Fog
4:54 AM 50.0 °F 50.0 °F 100% 30.09 in 0.2 mi East 3.5 mph - N/A Fog Fog
5:13 AM 50.0 °F 50.0 °F 100% 30.05 in 0.5 mi Calm Calm - N/A Fog Fog
5:20 AM 50.0 °F 50.0 °F 100% 30.05 in 2.5 mi Calm Calm - N/A   Mostly Cloudy
5:27 AM 50.0 °F 48.2 °F 94% 30.05 in 4.0 mi WSW 3.5 mph - N/A   Mostly Cloudy
5:34 AM 50.0 °F 48.2 °F 94% 30.05 in 1.8 mi Calm Calm - N/A   Mostly Cloudy
5:47 AM 50.0 °F 48.2 °F 94% 30.05 in 2.0 mi Calm Calm - N/A   Mostly Cloudy
5:54 AM 48.9 °F 48.9 °F 100% 30.09 in 0.8 mi Calm Calm - N/A   Overcast
6:37 AM 48.2 °F 46.4 °F 93% 30.05 in 0.8 mi ESE 3.5 mph - N/A   Clear
6:54 AM 46.9 °F 46.0 °F 97% 30.09 in 10.0 mi East 3.5 mph - N/A   Clear
7:54 AM 46.9 °F 46.9 °F 100% 30.11 in 10.0 mi Calm Calm - N/A   Clear
8:54 AM 52.0 °F 50.0 °F 93% 30.12 in 10.0 mi Calm Calm - N/A   Partly Cloudy
9:50 AM 53.6 °F 51.8 °F 94% 30.09 in 3.0 mi WSW 4.6 mph - 0.01 in   Mostly Cloudy
9:54 AM 53.1 °F 51.1 °F 93% 30.12 in 3.0 mi WSW 5.8 mph - 0.01 in   Mostly Cloudy
10:14 AM 53.6 °F 51.8 °F 94% 30.09 in 7.0 mi SW 4.6 mph - N/A   Scattered Clouds
10:38 AM 55.4 °F 53.6 °F 94% 30.09 in 6.0 mi Calm Calm - N/A   Haze
11:04 AM 57.2 °F 53.6 °F 88% 30.09 in 9.0 mi WSW 4.6 mph - N/A   Scattered Clouds
11:54 AM 60.1 °F 52.0 °F 75% 30.11 in 10.0 mi West 4.6 mph - N/A   Clear
12:54 PM 61.0 °F 48.0 °F 62% 30.10 in 10.0 mi West 8.1 mph - N/A   Clear
1:54 PM 61.0 °F 48.9 °F 64% 30.08 in 10.0 mi West 5.8 mph - N/A   Clear
2:54 PM 61.0 °F 48.9 °F 64% 30.08 in 10.0 mi WNW 5.8 mph - N/A   Clear
3:54 PM 61.0 °F 50.0 °F 67% 30.09 in 10.0 mi NW 13.8 mph - N/A   Clear
4:54 PM 61.0 °F 48.9 °F 64% 30.08 in 10.0 mi WNW 3.5 mph - N/A   Clear
5:54 PM 59.0 °F 48.9 °F 69% 30.08 in 10.0 mi WSW 3.5 mph - N/A   Clear
6:54 PM 57.9 °F 46.9 °F 67% 30.09 in 10.0 mi SSW 4.6 mph - N/A   Clear
7:54 PM 57.0 °F 46.9 °F 69% 30.10 in 10.0 mi SW 5.8 mph - N/A   Clear
8:54 PM 55.0 °F 48.0 °F 77% 30.10 in 10.0 mi South 3.5 mph - N/A   Clear
9:54 PM 54.0 °F 48.9 °F 83% 30.10 in 10.0 mi SE 5.8 mph - N/A   Clear
10:54 PM 53.1 °F 46.9 °F 80% 30.09 in 10.0 mi East 5.8 mph - N/A   Clear